Weather History for Houlton, ME

Change the Weather History Date:

Tuesday, October 9, 2012

  Actual Average Record
Temperature  
Mean Temperature 40 °F 46 °F  
Max Temperature 54 °F 57 °F 82 °F (1970)
Min Temperature 26 °F 35 °F 20 °F (2002)
Degree Days  
Heating Degree Days 25 19  
Month to date heating degree days 130 160  
Since 1 July heating degree days 456 628  
Cooling Degree Days 0 0  
Month to date cooling degree days 0 0  
Year to date cooling degree days 277 191  
Moisture  
Dew Point 28 °F    
Average Humidity 64    
Maximum Humidity 92    
Minimum Humidity 35    
Precipitation  
Precipitation 0.00 in 0.12 in 1.90 in (1976)
Month to date precipitation 1.63 1.04  
Year to date precipitation 35.42 30.06  
Sea Level Pressure  
Sea Level Pressure 30.33 in    
Wind  
Wind Speed 3 mph (SE)    
Max Wind Speed 13 mph    
Max Gust Speed 17 mph    
Visibility 10 miles    
Events      
T = Trace of Precipitation, MM = Missing Value Source: NWS Daily Summary

Daily Weather History Graph

Daily Weather History Graph

Search for Another Location

Airport:

Trip Planner

Search our weather history database for the weather conditions in past years. The results will help you decide how hot, cold, wet, or windy it might be!

Date:

Astronomy

Oct. 09, 2012 Rise Set
Actual Time 6:40 AM EDT 5:55 PM EDT
Civil Twilight 6:10 AM EDT 6:25 PM EDT
Nautical Twilight 5:36 AM EDT 6:59 PM EDT
Astronomical Twilight 5:01 AM EDT 7:34 PM EDT
Moon No Moon Rise 2:37 PM EDT (10/9)
Length of Visible Light 12h 14m
Length of Day
11h 14m
Last Quarter, 37% of the Moon is Illuminated
Oct 9
Last Quarter
Oct 15
New
Oct 21
First Quarter
Oct 29
Full
Nov 6
Last Quarter

Hourly Weather History & Observations

Time (EDT) Temp. Windchill Dew Point Humidity Pressure Visibility Wind Dir Wind Speed Gust Speed Precip Events Conditions
12:53 AM 28.9 °F - 26.1 °F 89% 30.38 in 10.0 mi Calm Calm - N/A   Clear
1:53 AM 28.9 °F - 26.1 °F 89% 30.39 in 10.0 mi Calm Calm - N/A   Clear
2:53 AM 28.0 °F - 25.0 °F 88% 30.38 in 10.0 mi Calm Calm - N/A   Clear
3:53 AM 28.4 °F - 24.8 °F 86% 30.37 in 10.0 mi Calm Calm - N/A   Clear
4:53 AM 27.0 °F - 25.0 °F 92% 30.40 in 10.0 mi Calm Calm - N/A   Clear
5:53 AM 28.0 °F - 25.0 °F 88% 30.40 in 10.0 mi Calm Calm - N/A   Clear
6:53 AM 26.6 °F - 23.0 °F 86% 30.40 in 10.0 mi Calm Calm - N/A   Clear
7:53 AM 28.0 °F - 27.0 °F 96% 30.43 in 10.0 mi Calm Calm - N/A   Clear
8:53 AM 36.0 °F - 30.9 °F 82% 30.43 in 10.0 mi Calm Calm - N/A   Clear
9:53 AM 43.0 °F - 36.0 °F 76% 30.42 in 10.0 mi Calm Calm - N/A   Clear
10:53 AM 48.9 °F - 30.0 °F 48% 30.40 in 10.0 mi SSE 9.2 mph - N/A   Clear
11:53 AM 50.0 °F - 25.0 °F 38% 30.38 in 10.0 mi ESE 10.4 mph - N/A   Clear
12:53 PM 52.0 °F - 27.0 °F 38% 30.35 in 10.0 mi ESE 8.1 mph 17.3 mph N/A   Clear
1:53 PM 54.0 °F - 26.1 °F 34% 30.33 in 10.0 mi South 5.8 mph - N/A   Clear
2:53 PM 54.0 °F - 27.0 °F 35% 30.31 in 10.0 mi Variable 6.9 mph - N/A   Mostly Cloudy
3:53 PM 51.1 °F - 26.1 °F 38% 30.29 in 10.0 mi ESE 6.9 mph - N/A   Overcast
4:53 PM 50.0 °F - 26.1 °F 39% 30.29 in 10.0 mi ESE 5.8 mph - N/A   Overcast
5:53 PM 45.0 °F 43.5 °F 34.0 °F 65% 30.27 in 10.0 mi East 3.5 mph - N/A   Clear
6:53 PM 37.9 °F 35.5 °F 32.0 °F 79% 30.26 in 10.0 mi East 3.5 mph - N/A   Clear
7:53 PM 34.0 °F - 30.9 °F 89% 30.26 in 10.0 mi Calm Calm - N/A   Clear
8:53 PM 43.0 °F 38.8 °F 30.9 °F 62% 30.24 in 10.0 mi ESE 6.9 mph - N/A   Clear
9:53 PM 43.0 °F 39.5 °F 30.9 °F 62% 30.23 in 10.0 mi ESE 5.8 mph - N/A   Clear
10:53 PM 42.1 °F 38.4 °F 32.0 °F 67% 30.21 in 10.0 mi SE 5.8 mph - N/A   Clear
11:53 PM 30.9 °F 27.5 °F 28.9 °F 92% 30.20 in 10.0 mi SSW 3.5 mph - N/A   Clear